Date String (YYYY-MM-DD hh:mm:ss) UTC,Instrument flags,Ambient pressure (hPa),Sample flow (lpm),Bypass flow (lpm),Sample temperature (°C),Ambient temperature (°C),ASC tube jacket temperature (°C),LED temperature (°C),Box temperature (°C),Sample RH (%),Span deviation,Mass concentration (μg/m³),Mass concentration (μg/m³),Mass concentration (μg/m³)
DateTimeUTC,F1_M11,P_M11,Q1_M11,Q2_M11,T1_M11,T2_M11,T3_M11,T4_M11,T5_M11,U1_M11,ZSPAN_M11,X0_M11,X2_M11,X1_M11
2023-04-28 07:00:00,,0832.5,5.00,0.00,24.8,23.1,00.0,33.3,26.3,18.3,0000.0,0000.69,0000.45,0000.34
2023-04-28 07:01:00,,0832.5,5.01,0.00,24.8,23.1,00.0,33.3,26.3,18.5,0000.0,0000.67,0000.44,0000.33
2023-04-28 07:02:00,,0832.5,5.00,0.00,24.8,23.1,00.0,33.3,26.2,18.4,0000.0,0000.69,0000.44,0000.33
2023-04-28 07:03:00,,0832.5,5.00,0.00,24.7,23.1,00.0,33.3,26.2,18.3,0000.0,0000.70,0000.44,0000.33
2023-04-28 07:04:00,,0832.5,5.00,0.00,24.7,23.1,00.0,33.2,26.2,18.3,0000.0,0000.70,0000.44,0000.33
2023-04-28 07:05:00,,0832.6,5.00,0.00,24.7,23.1,00.0,33.2,26.2,18.5,0000.0,0000.73,0000.45,0000.33
2023-04-28 07:06:00,,0832.6,5.00,0.00,24.7,23.1,00.0,33.2,26.3,18.6,0000.0,0000.77,0000.47,0000.33
2023-04-28 07:07:00,,0832.6,5.00,0.00,24.7,23.1,00.0,33.2,26.3,18.7,0000.0,0000.77,0000.47,0000.33
2023-04-28 07:08:00,,0832.6,5.00,0.00,24.7,23.1,00.0,33.2,26.2,18.7,0000.0,0000.78,0000.48,0000.34
2023-04-28 07:09:00,,0832.7,4.99,0.00,24.7,23.0,00.0,33.2,26.3,18.7,0000.0,0000.74,0000.46,0000.33
2023-04-28 07:10:00,,0832.6,5.00,0.00,24.7,23.1,00.0,33.2,26.2,18.8,0000.0,0000.71,0000.44,0000.33
2023-04-28 07:11:00,,0832.6,5.01,0.00,24.7,23.1,00.0,33.1,26.2,18.9,0000.0,0000.70,0000.43,0000.33
2023-04-28 07:12:00,,0832.6,5.01,0.00,24.7,23.1,00.0,33.1,26.1,18.9,0000.0,0000.69,0000.44,0000.33
2023-04-28 07:13:00,,0832.7,5.01,0.00,24.6,23.1,00.0,33.1,26.1,18.9,0000.0,0000.70,0000.46,0000.34
2023-04-28 07:14:00,,0832.7,4.99,0.00,24.6,23.0,00.0,33.1,26.1,18.8,0000.0,0000.71,0000.47,0000.34
2023-04-28 07:15:00,,0832.7,5.00,0.00,24.6,23.0,00.0,33.1,26.1,18.8,0000.0,0000.70,0000.46,0000.34
2023-04-28 07:16:00,,0832.7,5.00,0.00,24.6,23.0,00.0,33.1,26.1,18.9,0000.0,0000.67,0000.45,0000.35
2023-04-28 07:17:00,,0832.7,5.00,0.00,24.6,23.0,00.0,33.1,26.1,19.1,0000.0,0000.64,0000.44,0000.35
2023-04-28 07:18:00,,0832.7,5.00,0.00,24.6,23.0,00.0,33.1,26.1,19.3,0000.0,0000.58,0000.42,0000.35
2023-04-28 07:19:00,,0832.7,5.00,0.00,24.6,23.0,00.0,33.1,26.1,19.3,0000.0,0000.52,0000.40,0000.35
2023-04-28 07:20:00,,0832.7,5.00,0.00,24.6,22.9,00.0,33.0,26.0,19.3,0000.0,0000.56,0000.42,0000.35
2023-04-28 07:21:00,,0832.7,5.00,0.00,24.5,22.9,00.0,33.0,26.0,19.2,0000.0,0000.65,0000.43,0000.35
2023-04-28 07:22:00,,0832.7,5.00,0.00,24.5,22.9,00.0,33.0,25.9,19.3,0000.0,0000.73,0000.45,0000.36
2023-04-28 07:23:00,,0832.7,5.00,0.00,24.5,22.8,00.0,33.0,25.9,19.4,0000.0,0000.77,0000.47,0000.35
2023-04-28 07:24:00,,0832.7,5.00,0.00,24.5,22.8,00.0,33.0,25.9,19.5,0000.0,0000.72,0000.44,0000.35
2023-04-28 07:25:00,,0832.6,5.00,0.00,24.4,22.8,00.0,33.0,25.9,19.4,0000.0,0000.71,0000.44,0000.35
2023-04-28 07:26:00,,0832.7,5.00,0.00,24.4,22.7,00.0,32.9,25.9,19.4,0000.0,0000.70,0000.43,0000.34
2023-04-28 07:27:00,,0832.7,5.01,0.00,24.4,22.7,00.0,32.9,25.7,19.4,0000.0,0000.73,0000.45,0000.34
2023-04-28 07:28:00,,0832.7,5.00,0.00,24.4,22.6,00.0,32.9,25.7,19.5,0000.0,0000.72,0000.44,0000.33
2023-04-28 07:29:00,,0832.7,5.01,0.00,24.3,22.6,00.0,32.9,25.7,19.4,0000.0,0000.75,0000.46,0000.33
2023-04-28 07:30:00,,0832.7,5.00,0.00,24.3,22.5,00.0,32.9,25.7,19.5,0000.0,0000.76,0000.46,0000.33
2023-04-28 07:31:00,,0832.7,5.00,0.00,24.3,22.5,00.0,32.8,25.6,19.6,0000.0,0000.77,0000.46,0000.33
2023-04-28 07:32:00,,0832.7,4.99,0.00,24.2,22.5,00.0,32.8,25.6,19.6,0000.0,0000.70,0000.46,0000.33
2023-04-28 07:33:00,,0832.7,5.00,0.00,24.2,22.4,00.0,32.8,25.6,19.6,0000.0,0000.64,0000.45,0000.33
2023-04-28 07:34:00,,0832.7,5.00,0.00,24.2,22.4,00.0,32.8,25.5,19.5,0000.0,0000.61,0000.43,0000.33
2023-04-28 07:35:00,,0832.6,5.00,0.00,24.2,22.4,00.0,32.7,25.5,19.4,0000.0,0000.58,0000.42,0000.33
2023-04-28 07:36:00,,0832.7,5.00,0.00,24.1,22.3,00.0,32.7,25.4,19.3,0000.0,0000.63,0000.44,0000.33
2023-04-28 07:37:00,,0832.6,5.01,0.00,24.1,22.2,00.0,32.7,25.4,19.4,0000.0,0000.65,0000.44,0000.33
2023-04-28 07:38:00,,0832.6,5.00,0.00,24.0,22.1,00.0,32.7,25.4,19.4,0000.0,0000.62,0000.42,0000.33
2023-04-28 07:39:00,,0832.7,5.00,0.00,24.0,22.0,00.0,32.6,25.3,19.4,0000.0,0000.62,0000.42,0000.32
2023-04-28 07:40:00,,0832.7,5.00,0.00,23.9,21.9,00.0,32.6,25.3,19.6,0000.0,0000.66,0000.42,0000.32
2023-04-28 07:41:00,,0832.7,4.99,0.00,23.9,21.9,00.0,32.6,25.2,19.5,0000.0,0000.68,0000.43,0000.32
2023-04-28 07:42:00,,0832.7,5.00,0.00,23.8,21.8,00.0,32.5,25.1,19.5,0000.0,0000.64,0000.41,0000.31
2023-04-28 07:43:00,,0832.7,4.99,0.00,23.8,21.8,00.0,32.5,25.1,19.3,0000.0,0000.70,0000.41,0000.30
2023-04-28 07:44:00,,0832.8,5.00,0.00,23.8,21.7,00.0,32.5,25.1,19.3,0000.0,0000.90,0000.43,0000.31
2023-04-28 07:45:00,,0832.8,5.00,0.00,23.7,21.7,00.0,32.4,25.0,19.4,0000.0,0000.99,0000.44,0000.30
2023-04-28 07:46:00,,0833.3,5.00,0.00,23.7,21.7,00.0,32.4,25.0,19.5,0000.0,0001.15,0000.49,0000.31
2023-04-28 07:47:00,,0832.9,5.01,0.00,23.7,21.7,00.0,32.3,25.0,19.7,0000.0,0001.23,0000.52,0000.31
2023-04-28 07:48:00,,0833.3,5.00,0.00,23.6,21.7,00.0,32.3,25.0,19.8,0000.0,0001.52,0000.55,0000.31
2023-04-28 07:49:00,,0833.3,4.99,0.00,23.6,21.7,00.0,32.3,25.0,19.8,0000.0,0001.63,0000.56,0000.31
2023-04-28 07:50:00,,0833.2,5.00,0.00,23.6,21.7,00.0,32.3,25.0,20.2,0000.0,0001.68,0000.58,0000.32
2023-04-28 07:51:00,,0833.2,5.00,0.00,23.6,21.6,00.0,32.2,25.0,20.1,0000.0,0001.63,0000.57,0000.32
2023-04-28 07:52:00,,0833.0,5.01,0.00,23.5,21.7,00.0,32.2,24.9,20.1,0000.0,0001.63,0000.57,0000.32
2023-04-28 07:53:00,,0833.0,5.00,0.00,23.5,21.7,00.0,32.2,24.9,20.2,0000.0,0001.63,0000.57,0000.33
2023-04-28 07:54:00,,0832.9,5.00,0.00,23.5,21.7,00.0,32.2,25.0,20.3,0000.0,0001.65,0000.58,0000.33
2023-04-28 07:55:00,,0833.0,5.00,0.00,23.5,21.7,00.0,32.1,25.0,20.2,0000.0,0001.62,0000.58,0000.33
2023-04-28 07:56:00,,0832.9,5.00,0.00,23.5,21.7,00.0,32.1,24.9,20.2,0000.0,0001.59,0000.57,0000.33
2023-04-28 07:57:00,,0833.2,5.00,0.00,23.5,21.7,00.0,32.1,25.0,20.2,0000.0,0001.45,0000.53,0000.33
2023-04-28 07:58:00,,0833.1,4.99,0.00,23.5,21.7,00.0,32.1,25.0,20.3,0000.0,0001.71,0000.58,0000.34
2023-04-28 07:59:00,,0833.3,4.99,0.00,23.5,21.7,00.0,32.1,25.0,20.3,0000.0,0001.68,0000.57,0000.34
